Tracking 18871 objects as of 13-Dec-2017
HD Live streaming from Space Station
objects crossing your sky now

DELTA 1 DEB

Track DELTA 1 DEB now!
10-day predictions


NORAD ID: 15205
Int'l Code: 1984-088E
Perigee: 555.3 km
Apogee: 3,858.3 km
Inclination: 28.7 °
Period: 131.8 minutes
Semi major axis: 8577 km
RCS: 0.0578 m2 (small)
Launch date: August 16, 1984
Source: United States (US)
Launch site: AIR FORCE EASTERN TEST RANGE (AFETR)

Note: This is SATELLITE DEBRIS
aabbcc
Your satellite tracking list
Your tracking list is empty




NASA's NSSDC Master Catalog

Two Line Element Set (TLE):
1 15205U 84088E   17346.50599209 -.00000001 +00000-0 -37628-4 0  9994
2 15205 028.7257 040.8560 1925349 166.0672 340.4087 10.92793471897351
Source of the keplerian elements: AFSPC